Regional Weather Roundup
Issued by NWS

Home | Current Version | Previous Version | Text Only | Print | Product List | Glossary Off
Versions: 1 2 3 4 5 6 7 8 9 10 11 12 13 14 15 16 17 18 19 20 21 22 23 24 25 26 27 28 29 30 31 32 33 34 35 36 37 38 39 40 41 42 43 44 45 46 47 48 49 50

000
ASUS43 KDTX 301710
RWRMI
MICHIGAN HOURLY REGIONAL WEATHER ROUNDUP
NATIONAL WEATHER SERVICE DETROIT/PONTIAC MI
100 PM EDT SAT APR 30 2016

NOTE: "FAIR" INDICATES FEW OR NO CLOUDS BELOW 12,000 FEET WITH NO
SIGNIFICANT WEATHER AND/OR OBSTRUCTION TO VISIBILITY.

MIZ047>049-052>055-059>063-066>070-074>076-081>083-301800-
SOUTHEAST LOWER MICHIGAN

CITY           SKY/WX    TMP DP  RH WIND       PRES   REMARKS
ADRIAN         CLOUDY    52  37  56 E12       30.11S
ALMA           PTSUNNY   55  33  44 E8        30.13F
ANN ARBOR      PTSUNNY   54  38  54 E8        30.11S
BAD AXE        CLOUDY    55  28  34 SE9       30.17S
CARO           CLOUDY    57  30  36 E6        30.14S
DETROIT CITY   PTSUNNY   53  39  59 E13       30.13F
DETROIT        CLOUDY    54  39  57 E7        30.12F
FLINT          PTSUNNY   59  32  36 SE12      30.11F
GROSSE ILE     CLOUDY    55  43  62 E9        30.10F
HILLSDALE      CLOUDY    51  37  59 E8        30.09F
HOWELL         PTSUNNY   55  31  39 E9        30.11R

CITY           SKY/WX    TMP DP  RH WIND       PRES   REMARKS
JACKSON        PTSUNNY   54  33  45 SE9       30.10R
LAMBERTVILLE   PTSUNNY   52  41  65 E7        30.12R
LANSING        PTSUNNY   56  33  42 E9        30.11F
LAPEER         FAIR      56  31  38 SE6       30.13F
MASON          PTSUNNY   55  32  42 E8        30.11S
MONROE         CLOUDY    51  40  65 E12G20    30.11F
MT. CLEMENS    CLOUDY    55  40  58 E6        30.12F
PONTIAC        CLOUDY    54  37  52 E13G20    30.10F
PORT HOPE        N/A     44  39  82 NE5       30.17S
PORT HURON     MOSUNNY   55  39  54 SE9       30.14S
TRI CITIES     PTSUNNY   57  35  43 E10       30.15F
MIDLAND        PTSUNNY   54  34  46 E7        30.15S
TROY           MOSUNNY   55  36  48 E12G17    30.13F
SAGINAW HB     PTSUNNY   55  34  44 E9        30.14S
$$
MIZ043>046-050>051-056>058-064>065-071>073-077>080-301800-
SOUTHWEST LOWER MICHIGAN

CITY           SKY/WX    TMP DP  RH WIND       PRES   REMARKS
BATTLE CREEK   CLOUDY    53  31  42 SE9       30.10S
BENTON HARBOR  LGT RAIN  50  41  71 E10       30.07S
BIG RAPIDS     PTSUNNY   53  30  41 E9G17     30.12F
COLDWATER      LGT RAIN  51  38  61 E8        30.08F
FREMONT        FAIR      54  29  37 SE12      30.11F
HOLLAND        CLOUDY    53  37  54 E13       30.10F
GRAND RAPIDS   CLOUDY    53  35  50 E13       30.11S
IONIA          FAIR      53  35  50 E7        30.11S
KALAMAZOO      LGT RAIN  53  34  48 E10       30.09F
LUDINGTON      PTSUNNY   55  33  41 SE8       30.13F
MARSHALL       CLOUDY    53  31  42 SE10      30.09S
MOUNT PLEASANT CLOUDY    56  32  40 E8        30.13F
MUSKEGON       CLOUDY    54  32  43 E16       30.11F
SOUTH HAVEN    LGT RAIN  51  38  61 SE6       30.07F
$$
MIZ016>042-301800-
NORTHERN LOWER MICHIGAN

CITY           SKY/WX    TMP DP  RH WIND       PRES   REMARKS
ALPENA         SUNNY     57  25  29 E12G21    30.20S
BEAVER ISLAND  CLOUDY    54  30  40 NE9       30.19F
BELLAIRE       MOSUNNY   59  24  26 NE5       30.15F
CADILLAC       MOSUNNY   55  31  40 E8        30.13S
CHARLEVOIX     CLOUDY    49  34  55 N10       30.21S
FRANKFORT      MOSUNNY   58  36  44 N6        30.13F
GAYLORD        SUNNY     56  25  30 VRB5      30.16F
HARBOR SPRINGS MOSUNNY   58  28  30 N14       30.17F
HOUGHTON LAKE  MOSUNNY   56  30  37 E8G17     30.15F
MANISTEE       MOSUNNY   57  30  35 SE6       30.13F
OSCODA         CLOUDY    55  27  34 E8        30.18S
PELLSTON       SUNNY     58  26  29 E13G23    30.18F
ROGERS CITY    SUNNY     45  34  65 NE7       30.22S
TRAVERSE CITY  CLOUDY    56  30  37 N12       30.14F
$$
MIZ007>008-015-301800-
EASTERN UPPER MICHIGAN

CITY           SKY/WX    TMP DP  RH WIND       PRES   REMARKS
KINROSS          N/A     55  27  33 CALM      30.20S
MACKINAC ISLAN SUNNY     51  26  38 E10       30.21F
NEWBERRY       CLOUDY    55  32  42 NE3       30.19S
S. S. MARIE    MOSUNNY   57  29  34 S6        30.19F
MUNISING         N/A     42  36  79 NE14      30.23F
$$
MIZ004>006-011>014-085-301800-
CENTRAL UPPER MICHIGAN

CITY           SKY/WX    TMP DP  RH WIND       PRES   REMARKS
MANISTIQUE     PTSUNNY   53  28  37 SE8       30.19F
ESCANABA       MOSUNNY   55  34  44 SE7       30.18S
MENOMINEE      MOSUNNY   48  32  53 E16       30.17F
SAWYER-GWINN   SUNNY     46  34  61 NE15      30.23F
$$
MIZ001>003-009>011-084-301800-
WESTERN UPPER MICHIGAN

CITY           SKY/WX    TMP DP  RH WIND       PRES   REMARKS
IRON MOUNTAIN  CLOUDY    56  31  38 E9        30.16F
HOUGHTON       MOSUNNY   48  33  56 E12       30.25F
COPPER HARBOR    N/A     41  37  86 NE9       30.30R
IRONWOOD         N/A     50  32  50 NE14G23   30.18F
$$

ABBREVIATIONS USED IN REMARKS
   TC - TEMPERATURE IN CELSIUS
  WCI - WIND CHILL INDEX
   HX - HEAT INDEX
  VSB - VISIBILITY





USA.gov is the U.S. government's official web portal to all federal, state and local government web resources and services.